Location: Joplin, MO
(37.0842°N, 94.5133°W)
Time: 22:40:53
(UTC+02:00)

Courier 1B Rocket - Pass Details

Date: 02 April 2023
Orbit: 920 x 1202 km, 28.2° (Epoch: 05 June)

Event Time Altitude Azimuth Distance (km) Brightness Sun altitude
Rises 03:22:19 0° 256° (WSW) 4,018 9.5 -9.0°
Reaches altitude 10° 03:25:21 10° 250° (WSW) 3,022 8.5 -9.6°
Maximum altitude 03:32:14 42° 183° (S) 1,513 5.9 -11.0°
Enters shadow 03:37:41 15° 118° (ESE) 2,520 6.5 -12.0°
Drops below altitude 10° 03:38:41 10° 115° (ESE) 2,828 - -12.2°
Sets 03:41:26 0° 108° (ESE) 3,737 - -12.7°
